Sturgeon Bay, WI

9:51 PM CDT on October 18, 2019 (GMT -0500)
Door County Cherryland

Weather History for KSUE - August, 2019

Change the Weather History Date:

Tuesday, August 13, 2019

  Actual Average Record
Temperature  
Mean Temperature 66 °F -  
Max Temperature 71 °F 78 °F 96 °F (1944)
Min Temperature 62 °F 57 °F 41 °F (1950)
Cooling Degree Days 1    
Growing Degree Days 16 (Base 50)    
Moisture  
Dew Point 58 °F    
Average Humidity 75    
Maximum Humidity 87    
Minimum Humidity 59    
Precipitation  
Precipitation 0.00 in - - ()
Sea Level Pressure  
Sea Level Pressure 29.92 in    
Wind  
Wind Speed 7 mph (NNE)    
Max Wind Speed 15 mph    
Max Gust Speed 23 mph    
Visibility 10 miles    
Events Rain    
Averages and records for this station are not official NWS values.
T = Trace of Precipitation, MM = Missing Value Source: NWS Daily Summary

Daily Weather History Graph

Daily Weather History Graph

Search for Another Location

Airport or City:

Astronomy

Aug. 13, 2019 Rise Set
Actual Time 5:49 AM CDT 7:59 PM CDT
Civil Twilight 5:17 AM CDT 8:31 PM CDT
Nautical Twilight 4:37 AM CDT 9:10 PM CDT
Astronomical Twilight 3:53 AM CDT 9:54 PM CDT
Moon 7:18 PM CDT (8/13) 3:44 AM CDT (8/13)
Length of Visible Light 15h 14m
Length of Day
14h 10m
Waxing Gibbous, 97% of the Moon is Illuminated
Aug 13
Waxing Gibbous
Aug 15
Full
Aug 23
Last Quarter
Aug 30
New
Sep 5
First Quarter

Hourly Weather History & Observations

Time (CDT) Temp. Dew Point Humidity Pressure Visibility Wind Dir Wind Speed Gust Speed Precip Events Conditions
12:56 AM 66.9 °F 55.9 °F 68% 29.86 in 10.0 mi NE 4.6 mph - N/A   Overcast
1:56 AM 66.9 °F 60.1 °F 79% 29.87 in 10.0 mi ENE 5.8 mph - N/A   Overcast
2:56 AM 66.9 °F 61.0 °F 81% 29.86 in 10.0 mi ENE 4.6 mph - N/A   Overcast
3:56 AM 66.9 °F 60.1 °F 79% 29.86 in 10.0 mi ENE 5.8 mph - N/A   Scattered Clouds
4:56 AM 66.9 °F 57.9 °F 73% - 10.0 mi NE 5.8 mph - N/A   Overcast
5:56 AM 66.0 °F 57.0 °F 73% 29.88 in 10.0 mi NE 4.6 mph - N/A   Overcast
6:56 AM 66.0 °F 57.0 °F 73% 29.88 in 10.0 mi NE 5.8 mph - N/A   Overcast
7:56 AM 66.9 °F 57.0 °F 70% 29.89 in 10.0 mi NNE 8.1 mph - N/A   Partly Cloudy
8:56 AM 68.0 °F 55.0 °F 63% 29.89 in 10.0 mi ENE 8.1 mph - N/A   Overcast
9:56 AM 70.0 °F 55.0 °F 59% 29.90 in 10.0 mi NNE 6.9 mph - N/A   Partly Cloudy
10:56 AM 66.9 °F 57.9 °F 73% 29.91 in 10.0 mi North 15.0 mph 23.0 mph N/A   Mostly Cloudy
11:56 AM 64.9 °F 57.0 °F 75% 29.93 in 10.0 mi North 11.5 mph 21.9 mph N/A   Overcast
12:56 PM 64.0 °F 55.9 °F 75% 29.94 in 10.0 mi NNE 6.9 mph - 0.00 in Rain Light Rain
1:56 PM 64.9 °F 55.9 °F 73% 29.93 in 10.0 mi Variable 4.6 mph - 0.00 in   Overcast
2:56 PM 66.0 °F 55.9 °F 70% 29.92 in 10.0 mi NNE 9.2 mph - N/A   Overcast
3:56 PM 66.9 °F 57.9 °F 73% 29.93 in 10.0 mi North 9.2 mph - N/A   Overcast
4:56 PM 66.9 °F 59.0 °F 76% 29.93 in 10.0 mi North 13.8 mph - N/A   Overcast
5:56 PM 64.9 °F 57.9 °F 78% 29.94 in 10.0 mi NNE 6.9 mph - N/A   Overcast
6:56 PM 64.9 °F 57.9 °F 78% 29.94 in 10.0 mi North 5.8 mph - N/A   Overcast
7:56 PM 64.0 °F 57.9 °F 80% 29.95 in 10.0 mi NNE 4.6 mph - N/A   Overcast
8:56 PM 64.9 °F 59.0 °F 81% 29.95 in 10.0 mi NE 6.9 mph - N/A   Overcast
9:56 PM 62.1 °F 57.9 °F 86% 29.97 in 10.0 mi North 6.9 mph - N/A   Clear
10:56 PM 63.0 °F 59.0 °F 87% 29.96 in 10.0 mi NNE 5.8 mph - N/A   Mostly Cloudy
11:56 PM 64.0 °F 60.1 °F 87% 29.97 in 10.0 mi NNE 6.9 mph - N/A   Overcast